{"data":{"norad_id":63953,"intl_designator":"2025-099B","name":"STARLINK-34137","alt_names":[],"object_type":"PAYLOAD","status":"ACTIVE","operator":null,"country":"US","launch_date":"2025-05-13","launch_site_code":"AFETR","launch_vehicle":null,"mission":null,"orbit_class":"UNKNOWN","rcs_meters":null,"size_class":null,"mass_kg":null,"dimensions":null,"purposes":["comms"],"wikipedia_slug":null,"has_3d_model":false,"image_url":null,"decayed_at":null,"tle_current":{"epoch":"2026-09-20T23:38:59.795520Z","epoch_age_seconds":105152,"freshness":"FRESH","line1":"1 63953U 25099B   26263.98541430  .00010116  00000+0  37651-3 0  9997","line2":"2 63953  42.9985 153.3434 0000843 265.9748  94.1007 15.27588695 77207","mean_motion":15.27588695,"eccentricity":8.43e-5,"inclination_deg":42.9985,"raan_deg":153.3434,"arg_perigee_deg":265.9748,"mean_anomaly_deg":94.1007,"bstar":0.00037651,"rev_number":7720,"period_min":94.266212149469,"perigee_km":482.44466441206,"apogee_km":483.60145599821,"semimajor_km":6861.1600602051,"source":"CELESTRAK","updated_at":"2026-09-21T09:00:35.173868Z"}}}